TimeEDT,TemperatureF,Dew PointF,Humidity,Sea Level PressureIn,VisibilityMPH,Wind Direction,Wind SpeedMPH,Gust SpeedMPH,PrecipitationIn,Events,Conditions,WindDirDegrees,DateUTC
12:21 AM,48.2,46.4,93,29.93,10.0,WNW,20.7,27.6,0.00,,Overcast,290,2012-10-26 04:21:00
12:31 AM,48.2,46.4,93,29.94,10.0,WNW,20.7,26.5,0.00,,Overcast,290,2012-10-26 04:31:00
12:53 AM,48.0,46.0,93,29.95,5.0,WNW,15.0,28.8,0.00,Rain,Light Rain,300,2012-10-26 04:53:00
1:53 AM,46.9,44.1,90,29.98,5.0,NW,12.7,-,0.03,Rain,Light Rain,310,2012-10-26 05:53:00
2:53 AM,46.0,43.0,89,30.02,8.0,WNW,12.7,20.7,0.03,Rain,Light Rain,300,2012-10-26 06:53:00
3:41 AM,46.4,42.8,87,30.05,9.0,NW,13.8,21.9,0.06,Rain,Light Rain,320,2012-10-26 07:41:00
3:50 AM,44.6,42.8,93,30.02,5.0,NNW,18.4,25.3,0.08,Rain,Rain,330,2012-10-26 07:50:00
3:53 AM,45.0,43.0,93,30.02,4.0,NW,17.3,25.3,0.09,Rain,Heavy Rain,320,2012-10-26 07:53:00
4:40 AM,44.6,42.8,93,30.06,10.0,NW,11.5,-,0.01,,Overcast,320,2012-10-26 08:40:00
4:53 AM,45.0,42.1,90,30.08,10.0,NW,10.4,18.4,0.01,Rain,Light Rain,310,2012-10-26 08:53:00
5:07 AM,44.6,41.0,87,30.09,10.0,NW,11.5,20.7,0.00,,Overcast,320,2012-10-26 09:07:00
5:45 AM,44.6,39.2,81,30.12,10.0,WNW,10.4,19.6,0.00,,Overcast,300,2012-10-26 09:45:00
5:53 AM,45.0,39.9,82,30.12,10.0,NW,10.4,-,0.00,,Overcast,310,2012-10-26 09:53:00
6:53 AM,44.1,37.9,79,30.14,10.0,NW,12.7,20.7,N/A,,Overcast,320,2012-10-26 10:53:00
7:53 AM,44.1,37.0,76,30.17,10.0,NW,15.0,19.6,N/A,,Overcast,310,2012-10-26 11:53:00
8:53 AM,42.8,35.6,76,30.20,10.0,NNW,12.7,-,N/A,,Overcast,330,2012-10-26 12:53:00
9:53 AM,43.0,33.1,68,30.22,10.0,NNW,16.1,-,N/A,,Mostly Cloudy,330,2012-10-26 13:53:00
10:53 AM,45.0,34.0,65,30.25,10.0,NNW,13.8,23.0,N/A,,Mostly Cloudy,340,2012-10-26 14:53:00
11:12 AM,44.6,33.8,66,30.24,10.0,NNW,13.8,-,N/A,,Scattered Clouds,330,2012-10-26 15:12:00
11:53 AM,48.0,35.1,61,30.27,10.0,NNW,13.8,-,N/A,,Scattered Clouds,330,2012-10-26 15:53:00
12:53 PM,46.9,33.1,59,30.27,10.0,NNW,13.8,21.9,N/A,,Scattered Clouds,340,2012-10-26 16:53:00
1:53 PM,48.0,33.1,56,30.27,10.0,NNW,11.5,19.6,N/A,,Clear,330,2012-10-26 17:53:00
2:53 PM,48.0,34.0,58,30.26,10.0,NNW,10.4,-,N/A,,Clear,340,2012-10-26 18:53:00
2:57 PM,48.2,33.8,58,30.24,10.0,North,13.8,18.4,N/A,,Clear,360,2012-10-26 18:57:00
3:53 PM,48.0,30.9,52,30.26,10.0,North,9.2,-,N/A,,Clear,350,2012-10-26 19:53:00
4:53 PM,48.0,33.1,56,30.25,10.0,North,8.1,-,N/A,,Clear,360,2012-10-26 20:53:00
5:53 PM,48.0,30.9,52,30.25,10.0,NNW,9.2,-,N/A,,Clear,340,2012-10-26 21:53:00
6:53 PM,43.0,32.0,65,30.25,10.0,North,6.9,-,N/A,,Clear,350,2012-10-26 22:53:00
7:53 PM,44.1,32.0,63,30.27,10.0,NNW,10.4,-,N/A,,Clear,340,2012-10-26 23:53:00
8:53 PM,43.0,32.0,65,30.27,10.0,NNW,10.4,-,N/A,,Clear,330,2012-10-27 00:53:00
9:53 PM,42.1,32.0,67,30.27,10.0,NNW,11.5,-,N/A,,Clear,340,2012-10-27 01:53:00
10:53 PM,39.9,30.9,70,30.29,10.0,North,10.4,-,N/A,,Clear,350,2012-10-27 02:53:00
11:53 PM,37.9,30.0,73,30.29,10.0,North,11.5,-,N/A,,Clear,350,2012-10-27 03:53:00